Location: Hohe Wand Waldeggerhaus
(47.8500°N, 16.0440°E)
Time: 15:00:53
(UTC+02:00)

Envisat - Visible Passes

Search period start: 23 May 2024 00:00
Search period end: 02 June 2024 00:00
Orbit: 762 x 764 km, 98.3° (Epoch: 22 May)

Date Brightness Start Highest point End Pass type
(mag) Time Alt. Az. Time Alt. Az. Time Alt. Az.
23 May 4.6 03:34:07 10° NNE 03:38:38 32° E 03:43:08 10° SSE visible
24 May 5.4 02:57:54 10° NE 03:00:53 15° E 03:03:51 10° SE visible
25 May 3.8 03:58:04 10° NNE 04:03:02 51° E 04:07:58 10° S visible
26 May 4.9 03:21:16 10° NE 03:25:26 25° E 03:29:34 10° SSE visible
27 May 5.6 02:45:48 10° ENE 02:47:36 12° E 02:49:23 10° ESE visible
27 May 3.1 04:22:15 10° NNE 04:27:22 83° ESE 04:32:26 10° SSW visible
28 May 4.2 03:45:06 10° NNE 03:49:53 40° E 03:54:37 10° SSE visible
29 May 5.2 03:08:33 10° NE 03:12:12 19° E 03:15:48 10° SE visible
30 May 3.4 04:09:10 10° NNE 04:14:14 65° ESE 04:19:16 10° S visible
31 May 4.6 03:32:11 10° NNE 03:36:41 31° E 03:41:09 10° SSE visible
01 Jun 5.5 02:56:01 10° NE 02:58:55 15° E 03:01:47 10° ESE visible
